Pueblo, CO

9:38 AM MDT on September 22, 2017 (GMT -0600)
Pueblo Memorial

Weather History for KPUB - January, 2013

Change the Weather History Date:

Wednesday, January 16, 2013

  Actual Average Record
Temperature  
Mean Temperature 36 °F 30 °F  
Max Temperature 55 °F 47 °F 70 °F (1974)
Min Temperature 17 °F 14 °F -14 °F (1987)
Degree Days  
Heating Degree Days 29 34  
Month to date heating degree days 658 558  
Since 1 July heating degree days 2880 2921  
Cooling Degree Days 0 0  
Month to date cooling degree days 0 0  
Year to date cooling degree days 0 0  
Moisture  
Dew Point 11 °F    
Average Humidity 40    
Maximum Humidity 57    
Minimum Humidity 22    
Precipitation  
Precipitation 0.00 in 0.01 in 0.40 in (1988)
Month to date precipitation 0.02 0.18  
Year to date precipitation 0.02 0.18  
Snow  
Snow 0.00 in 0.20 in 11.30 in (2001)
Month to date snowfall 1.0 3.3  
Since 1 July snowfall 6.6 14.8  
Snow Depth 0.00 in    
Sea Level Pressure  
Sea Level Pressure 30.29 in    
Wind  
Wind Speed 6 mph (West)    
Max Wind Speed 15 mph    
Max Gust Speed 18 mph    
Visibility 10 miles    
Events      
T = Trace of Precipitation, MM = Missing Value Source: NWS Daily Summary

Daily Weather History Graph

Daily Weather History Graph

Search for Another Location

Airport or City:

Trip Planner

Search our weather history database for the weather conditions in past years. The results will help you decide how hot, cold, wet, or windy it might be!

Date:

Astronomy

Jan. 16, 2013 Rise Set
Actual Time 7:13 AM MST 5:03 PM MST
Civil Twilight 6:44 AM MST 5:31 PM MST
Nautical Twilight 6:11 AM MST 6:04 PM MST
Astronomical Twilight 5:40 AM MST 6:36 PM MST
Moon 9:56 AM MST (1/16) 10:51 PM MST (1/16)
Length of Visible Light 10h 47m
Length of Day
9h 50m
Waxing Crescent, 29% of the Moon is Illuminated
Jan 16
Waxing Crescent
Jan 18
First Quarter
Jan 26
Full
Feb 3
Last Quarter
Feb 10
New

Hourly Weather History & Observations

Time (MST) Temp. Windchill Dew Point Humidity Pressure Visibility Wind Dir Wind Speed Gust Speed Precip Events Conditions
12:53 AM 23.0 °F 13.9 °F 3.0 °F 42% 30.22 in 10.0 mi WNW 8.1 mph - N/A   Overcast
1:53 AM 21.2 °F 10.9 °F 3.2 °F 46% 30.15 in 10.0 mi WSW 9.2 mph - N/A   Overcast
2:53 AM 19.9 °F 11.1 °F 3.0 °F 48% 30.26 in 10.0 mi WSW 6.9 mph - N/A   Partly Cloudy
3:53 AM 19.0 °F 8.2 °F 3.9 °F 52% 30.25 in 10.0 mi WSW 9.2 mph - N/A   Clear
4:53 AM 19.9 °F 9.3 °F 5.0 °F 52% 30.25 in 10.0 mi West 9.2 mph - N/A   Clear
5:53 AM 19.9 °F 12.1 °F 6.1 °F 55% 30.26 in 10.0 mi WSW 5.8 mph - N/A   Clear
6:53 AM 19.9 °F 11.1 °F 7.0 °F 57% 30.28 in 10.0 mi West 6.9 mph - N/A   Clear
7:53 AM 21.0 °F 16.2 °F 8.1 °F 57% 30.31 in 10.0 mi WNW 3.5 mph - N/A   Clear
8:53 AM 30.9 °F 24.3 °F 12.0 °F 46% 30.30 in 10.0 mi West 6.9 mph - N/A   Clear
9:53 AM 37.0 °F 29.8 °F 12.9 °F 37% 30.30 in 10.0 mi West 10.4 mph - N/A   Clear
10:53 AM 46.0 °F 39.9 °F 14.0 °F 28% 30.25 in 10.0 mi West 13.8 mph - N/A   Clear
11:53 AM 50.0 °F - 15.1 °F 25% 30.22 in 10.0 mi WSW 9.2 mph - N/A   Clear
12:53 PM 53.6 °F - 15.8 °F 22% 30.18 in 10.0 mi Variable 5.8 mph - N/A   Clear
1:53 PM 54.0 °F - 16.0 °F 22% 30.18 in 10.0 mi NE 5.8 mph - N/A   Clear
2:53 PM 54.0 °F - 17.1 °F 23% 30.20 in 10.0 mi ENE 8.1 mph - N/A   Clear
3:53 PM 53.1 °F - 16.0 °F 23% 30.22 in 10.0 mi ESE 3.5 mph - N/A   Clear
4:53 PM 48.0 °F - 16.0 °F 28% 30.25 in 10.0 mi SSE 5.8 mph - N/A   Clear
5:53 PM 36.0 °F 32.1 °F 12.0 °F 37% 30.32 in 10.0 mi East 4.6 mph - N/A   Clear
6:53 PM 35.1 °F 31.0 °F 12.9 °F 40% 30.37 in 10.0 mi East 4.6 mph - N/A   Clear
7:53 PM 28.9 °F 25.2 °F 10.9 °F 47% 30.42 in 10.0 mi NNE 3.5 mph - N/A   Clear
8:53 PM 28.9 °F 25.2 °F 12.0 °F 49% 30.41 in 10.0 mi East 3.5 mph - N/A   Clear
9:53 PM 25.0 °F - 10.9 °F 55% 30.42 in 10.0 mi Calm Calm - N/A   Clear
10:53 PM 21.0 °F 16.2 °F 9.0 °F 60% 30.43 in 10.0 mi WNW 3.5 mph - N/A   Clear
11:53 PM 19.0 °F - 8.1 °F 62% 30.44 in 10.0 mi Calm Calm - N/A   Clear